sat.trackr.live / text

‹ back to catalog

ONEWEB-0559

NORAD 56060 · 2023-043Q

PAYLOAD ACTIVE UNKNOWN

§ Identity

Operator
Country
UK
Launch date
2023-03-26
Launch site
SRILR
Launch vehicle
Mass (kg)
RCS (m²)

Purposes: comms

External: N2YO · Heavens-Above · Gunter

§ Orbital elements

Epoch: 2026-05-25T01:00:39.746880Z

Period
108.94 min
Inclination
87.9255°
Eccentricity
0.0001737
Mean motion
13.21826072 rev/d
Perigee alt
1,176.4 km
Apogee alt
1,179.1 km
Semi-major
7,555.9 km
B*
-2.6184e-5
RAAN
248.5780°
Arg perigee
99.5494°
Mean anomaly
260.5836°
Rev number
15,519

§ Raw data

ONEWEB-05591 56060U 23043Q   26145.04212670  .00000002  00000+0 -26184-4 0  99962 56060  87.9255 248.5780 0001737  99.5494 260.5836 13.21826072155190

JSON: /api/v1/satellites/56060 · /tle

For live sub-satellite position, see the globe view (requires WebGL).

§ Visibility from observer

Set your observer location to see the next 7 days of passes ≥ 10°. The values pass through the URL so the page stays shareable.

No JS? Fill the form by hand. The geolocation button needs JavaScript.